Total_Precipitation_Accumulation
2.13 2.79 3.47 4.04 4.69 5.41 5.94 5.78 5.12 4.58 3.94 3.38 2.79 2.59 2.31 2.09 1.84 1.62 1.41 1.36 1.30 1.10 1.01 0.90 0.95 0.81 0.80 0.82 0.81 0.93 1.00 0.99 1.04 1.26 1.33 1.17 1.03 1.06 1.08 1.06 1.18 1.25 1.28
2.09 2.86 3.47 3.66 3.66 3.90 4.14 3.62 3.38 3.29 2.84 2.51 2.39 2.20 1.99 1.78 1.58 1.47 1.37 1.16 1.10 1.02 0.92 0.95 0.91 0.84 0.86 0.82 0.80 0.89 0.94 0.94 0.98 1.11 1.24 1.16 1.19 1.10 0.89 1.08 1.13 1.15 1.34
2.20 2.71 2.88 2.88 2.75 2.72 2.68 2.42 2.32 2.54 2.40 2.31 2.23 2.15 2.05 1.94 1.69 1.40 1.30 1.09 0.94 0.91 0.91 0.89 0.92 0.92 0.78 0.78 0.82 0.80 0.83 0.85 0.85 0.88 1.04 1.08 1.11 1.00 0.90 0.97 1.01 1.11 1.29
2.17 2.15 1.76 1.63 1.76 1.84 1.91 2.10 2.14 2.18 2.05 2.02 1.80 1.62 1.46 1.31 1.22 1.19 1.14 1.13 0.99 0.90 0.83 0.83 0.93 0.91 0.79 0.85 0.67 0.68 0.79 0.83 0.72 0.69 0.71 0.72 0.85 0.96 1.05 1.01 0.99 1.03 1.08
1.23 1.02 0.88 0.95 1.18 1.41 1.63 1.98 2.03 1.95 1.83 1.76 1.71 1.69 1.57 1.49 1.40 1.36 1.36 1.31 1.28 1.13 0.92 0.81 0.89 0.93 0.89 0.93 0.83 0.90 0.77 0.70 0.64 0.62 0.68 0.71 0.66 0.66 0.87 1.03 1.03 1.00 0.84
0.59 0.61 0.69 0.88 1.11 1.28 1.38 1.56 1.70 1.83 1.86 1.86 1.87 1.76 1.67 1.65 1.50 1.36 1.25 1.23 1.22 1.16 1.07 0.97 1.04 1.04 0.97 0.96 0.90 0.94 0.88 0.81 0.76 0.65 0.64 0.83 0.78 0.64 0.74 0.76 0.83 0.83 0.66
0.43 0.60 0.66 0.85 0.96 1.07 1.10 1.19 1.29 1.46 1.57 1.64 1.73 1.74 1.71 1.67 1.49 1.37 1.22 1.16 1.06 0.99 1.03 1.10 1.15 1.09 1.09 1.02 0.98 0.98 0.97 1.02 1.01 0.82 0.65 0.65 0.74 0.69 0.67 0.69 0.68 0.71 0.68
0.29 0.34 0.38 0.47 0.61 0.78 0.97 1.10 1.14 1.13 1.15 1.19 1.35 1.52 1.53 1.52 1.43 1.41 1.21 1.13 1.04 1.04 1.11 1.17 1.08 1.02 1.02 0.99 1.02 0.94 0.89 0.95 1.01 0.93 0.97 0.89 0.70 0.79 0.79 0.80 0.90 0.93 0.94
0.28 0.25 0.25 0.31 0.40 0.46 0.61 0.82 0.89 0.89 0.90 0.95 1.07 1.16 1.22 1.32 1.38 1.31 1.14 1.02 1.04 1.06 1.06 0.99 0.96 0.98 1.00 1.04 1.07 1.03 0.98 1.00 0.89 0.87 1.06 1.03 0.84 0.83 0.85 0.88 1.00 1.20 1.18
0.23 0.26 0.27 0.27 0.29 0.32 0.45 0.61 0.75 0.77 0.78 0.82 0.89 0.88 1.01 1.11 1.19 1.17 1.11 0.99 0.97 1.03 1.03 0.98 0.93 0.94 0.89 0.91 1.01 0.98 1.02 1.08 1.03 0.99 1.04 1.08 1.05 1.00 0.99 1.02 1.07 1.20 1.24
0.25 0.30 0.25 0.29 0.26 0.25 0.33 0.45 0.62 0.69 0.65 0.67 0.75 0.84 0.93 1.08 1.13 1.08 1.09 1.02 1.00 1.02 1.02 1.00 1.03 1.00 0.95 0.92 0.96 0.94 1.01 1.08 1.17 1.19 1.14 1.12 1.21 1.24 1.16 1.15 1.17 1.25 1.37
0.27 0.28 0.23 0.26 0.20 0.21 0.28 0.37 0.44 0.52 0.55 0.61 0.72 0.79 0.85 0.96 1.07 1.03 1.06 1.12 1.08 1.05 1.00 0.99 1.05 0.99 0.95 0.97 0.91 0.90 0.96 1.06 1.15 1.24 1.37 1.38 1.33 1.29 1.24 1.26 1.28 1.37 1.56
0.32 0.25 0.23 0.22 0.18 0.19 0.23 0.30 0.39 0.50 0.54 0.58 0.69 0.77 0.77 0.84 0.97 1.02 1.03 1.07 1.09 1.12 1.11 1.06 1.05 1.05 1.05 1.06 0.96 0.92 0.93 0.96 0.98 1.09 1.34 1.55 1.70 1.58 1.41 1.32 1.30 1.36 1.48
0.25 0.22 0.20 0.20 0.24 0.24 0.27 0.34 0.46 0.49 0.56 0.57 0.64 0.73 0.78 0.89 1.01 1.03 1.04 1.06 1.04 1.10 1.17 1.19 1.18 1.15 1.11 1.06 1.04 1.09 1.07 1.03 0.96 0.98 1.09 1.23 1.42 1.56 1.63 1.50 1.37 1.36 1.48
0.28 0.24 0.25 0.26 0.28 0.32 0.36 0.43 0.56 0.58 0.63 0.76 0.84 0.92 0.93 1.00 1.12 1.16 1.11 1.15 1.16 1.16 1.30 1.35 1.32 1.29 1.24 1.13 1.18 1.26 1.16 1.16 1.10 1.06 1.04 1.01 1.10 1.24 1.39 1.43 1.53 1.55 1.54
0.31 0.28 0.30 0.33 0.32 0.35 0.43 0.49 0.58 0.66 0.81 1.09 1.20 1.22 1.25 1.30 1.30 1.29 1.24 1.31 1.39 1.51 1.55 1.50 1.45 1.43 1.30 1.35 1.31 1.28 1.25 1.28 1.27 1.23 1.16 1.07 1.01 1.04 1.13 1.20 1.30 1.44 1.50
0.36 0.36 0.39 0.44 0.44 0.45 0.50 0.54 0.59 0.67 0.85 1.06 1.21 1.31 1.34 1.36 1.41 1.41 1.43 1.43 1.49 1.55 1.59 1.63 1.63 1.60 1.67 1.58 1.32 1.26 1.25 1.29 1.33 1.39 1.40 1.17 0.99 1.04 1.02 1.10 1.13 1.15 1.26
0.46 0.50 0.50 0.56 0.56 0.57 0.59 0.67 0.79 0.89 0.98 1.11 1.24 1.38 1.42 1.47 1.49 1.44 1.38 1.37 1.39 1.39 1.36 1.34 1.33 1.40 1.40 1.34 1.15 1.09 1.03 1.12 1.16 1.17 1.19 1.16 1.03 0.97 0.96 0.97 0.95 0.92 0.94
0.54 0.58 0.63 0.66 0.72 0.79 0.80 0.84 0.98 1.11 1.18 1.25 1.38 1.48 1.55 1.63 1.57 1.44 1.38 1.29 1.28 1.20 1.13 1.12 1.14 1.17 1.22 1.20 1.06 1.01 0.93 0.96 0.97 0.96 1.00 1.03 0.95 0.91 0.79 0.78 0.81 0.80 0.79
0.58 0.61 0.71 0.78 0.83 0.95 1.00 1.01 1.06 1.11 1.17 1.22 1.31 1.43 1.50 1.62 1.65 1.54 1.48 1.42 1.40 1.30 1.25 1.20 1.18 1.19 1.28 1.33 1.13 1.04 0.96 0.98 0.99 1.08 1.10 1.06 0.93 0.83 0.67 0.66 0.71 0.70 0.67
0.56 0.59 0.67 0.78 0.85 0.92 1.02 1.13 1.14 1.07 1.06 1.04 1.04 1.15 1.29 1.44 1.50 1.50 1.47 1.51 1.50 1.41 1.27 1.14 1.08 1.08 1.18 1.29 1.14 1.00 0.91 0.97 1.06 1.15 1.22 1.17 0.99 0.75 0.61 0.55 0.55 0.53 0.55
0.55 0.61 0.65 0.72 0.81 0.92 1.07 1.19 1.16 1.11 1.08 1.08 1.12 1.18 1.24 1.25 1.24 1.28 1.29 1.36 1.41 1.37 1.28 1.12 0.99 0.94 0.92 0.91 0.94 0.81 0.72 0.77 0.88 1.02 1.15 1.16 0.99 0.77 0.61 0.51 0.46 0.43 0.41
0.58 0.56 0.62 0.69 0.81 0.97 1.12 1.23 1.20 1.24 1.23 1.19 1.22 1.25 1.26 1.26 1.29 1.26 1.25 1.24 1.20 1.12 1.03 0.93 0.93 0.91 0.86 0.80 0.75 0.62 0.52 0.54 0.66 0.80 1.06 1.14 1.02 0.87 0.72 0.63 0.57 0.48 0.40
0.60 0.60 0.61 0.66 0.76 0.84 0.92 1.05 1.10 1.16 1.24 1.21 1.12 1.03 1.01 1.01 1.06 1.11 1.12 1.14 1.11 1.06 0.99 0.91 0.94 0.90 0.85 0.78 0.73 0.68 0.58 0.57 0.67 0.74 0.90 1.04 1.06 0.96 0.88 0.77 0.64 0.52 0.47
0.66 0.67 0.68 0.72 0.76 0.81 0.84 0.90 0.98 1.08 1.23 1.25 1.16 1.09 1.04 1.01 1.01 1.04 1.08 1.07 1.06 1.03 0.96 0.91 0.97 0.98 0.94 0.90 0.83 0.81 0.79 0.76 0.80 0.78 0.86 1.00 1.09 1.09 1.04 1.00 0.90 0.77 0.69
0.67 0.72 0.77 0.80 0.77 0.79 0.85 0.90 0.99 1.11 1.25 1.23 1.12 1.10 1.11 1.09 1.07 1.03 1.06 1.11 1.00 0.99 0.93 0.94 0.96 0.98 0.92 0.82 0.67 0.65 0.64 0.59 0.55 0.55 0.70 0.88 1.04 1.15 1.19 1.21 1.15 1.03 0.92